Ottawa International, Ontario

4:42 AM EST on February 21, 2018 (GMT -0500)
Ottawa International Airport

Weather History for CYOW - March, 2013

Change the Weather History Date:

Sunday, March 3, 2013

  Actual Average Record
Temperature  
Mean Temperature 20 °F -  
Max Temperature 25 °F 37 °F 50 °F (2008)
Min Temperature 15 °F 20 °F -20 °F (2003)
Degree Days  
Heating Degree Days 45    
Moisture  
Dew Point 14 °F    
Average Humidity 76    
Maximum Humidity 86    
Minimum Humidity 55    
Precipitation  
Precipitation 0.00 in 0.09 in - ()
Sea Level Pressure  
Sea Level Pressure 29.82 in    
Wind  
Wind Speed 11 mph ()    
Max Wind Speed 16 mph    
Max Gust Speed 18 mph    
Visibility 13.8 miles    
Events Snow    
Averages and records for this station are not official NWS values.
T = Trace of Precipitation, MM = Missing Value Source: Averaged Metar Reports

Daily Weather History Graph

Daily Weather History Graph

Search for Another Location

Airport or City:

Trip Planner

Search our weather history database for the weather conditions in past years. The results will help you decide how hot, cold, wet, or windy it might be!

Date:

Astronomy

Mar. 03, 2013 Rise Set
Actual Time 6:36 AM EST 5:52 PM EST
Civil Twilight 6:07 AM EST 6:22 PM EST
Nautical Twilight 5:33 AM EST 6:56 PM EST
Astronomical Twilight 4:58 AM EST 7:31 PM EST
Moon No Moon Rise 9:31 AM EST (3/3)
Length of Visible Light 12h 15m
Length of Day
11h 16m
Waning Gibbous, 64% of the Moon is Illuminated
Mar 3
Waning Gibbous
Mar 4
Last Quarter
Mar 11
New
Mar 19
First Quarter
Mar 27
Full

Hourly Weather History & Observations

Time (EST) Temp. Windchill Dew Point Humidity Pressure Visibility Wind Dir Wind Speed Gust Speed Precip Events Conditions
12:00 AM 19.4 °F 6.0 °F 14.0 °F 80% 29.85 in 15.0 mi NW 13.8 mph - N/A   Overcast
1:00 AM 19.4 °F 6.0 °F 14.0 °F 80% 29.85 in 15.0 mi NW 13.8 mph - N/A   Overcast
1:38 AM 19.4 °F 6.6 °F 14.0 °F 80% 29.85 in 12.0 mi NW 12.7 mph - N/A Snow Light Snow
2:00 AM 19.4 °F 6.0 °F 14.0 °F 80% 29.84 in 12.0 mi NW 13.8 mph - N/A Snow Light Snow
3:00 AM 19.4 °F 7.2 °F 14.0 °F 80% 29.83 in 12.0 mi NW 11.5 mph - N/A Snow Light Snow
4:00 AM 17.6 °F 5.7 °F 14.0 °F 86% 29.83 in 10.0 mi NW 10.4 mph - N/A Snow Light Snow
5:00 AM 17.6 °F 5.7 °F 12.2 °F 79% 29.83 in 15.0 mi WNW 10.4 mph - N/A   Overcast
5:25 AM 15.8 °F 3.4 °F 10.4 °F 79% 29.84 in 15.0 mi NW 10.4 mph - N/A   Mostly Cloudy
6:00 AM 15.8 °F 3.4 °F 10.4 °F 79% 29.84 in 15.0 mi WNW 10.4 mph - N/A   Mostly Cloudy
7:00 AM 17 °F - 11 °F 69% 29.84 in 15 mi WNW 9.2 mph - -   Partly Cloudy
7:00 AM 15.8 °F 3.4 °F 10.4 °F 79% 29.84 in 15.0 mi WNW 10.4 mph - N/A   Mostly Cloudy
8:00 AM 17.6 °F 5.0 °F 12.2 °F 79% 29.85 in 15.0 mi WNW 11.5 mph - N/A   Mostly Cloudy
9:00 AM 17.6 °F 5.0 °F 12.2 °F 79% 29.83 in 15.0 mi WNW 11.5 mph - N/A   Mostly Cloudy
10:00 AM 19.4 °F 6.0 °F 12.2 °F 74% 29.83 in 15.0 mi West 13.8 mph - N/A   Mostly Cloudy
11:00 AM 21.2 °F 7.3 °F 12.2 °F 68% 29.83 in 15.0 mi West 16.1 mph - N/A   Mostly Cloudy
12:00 PM 23.0 °F 10.6 °F 14.0 °F 68% 29.82 in 15.0 mi West 13.8 mph - N/A   Mostly Cloudy
1:00 PM 24 °F - 14 °F 55% 29.81 in 15 mi West 10.4 mph - -   Mostly Cloudy
1:00 PM 24.8 °F 14.6 °F 14.0 °F 64% 29.80 in 15.0 mi West 10.4 mph - N/A   Mostly Cloudy
2:00 PM 23.0 °F 9.6 °F 14.0 °F 68% 29.78 in 15.0 mi WSW 16.1 mph - N/A   Mostly Cloudy
3:00 PM 23.0 °F 10.1 °F 14.0 °F 68% 29.79 in 15.0 mi WSW 15.0 mph - N/A   Mostly Cloudy
4:00 PM 21.2 °F 7.8 °F 14.0 °F 74% 29.80 in 15.0 mi WSW 15.0 mph - N/A   Overcast
5:00 PM 21.2 °F 9.5 °F 15.8 °F 80% 29.80 in 15.0 mi WSW 11.5 mph - N/A   Overcast
6:00 PM 23.0 °F 13.1 °F 15.8 °F 74% 29.81 in 10.0 mi West 9.2 mph - N/A Snow Light Snow
7:00 PM 22 °F - 17 °F 73% 29.81 in 10 mi West 10.4 mph - - Snow Light Snow
7:00 PM 23.0 °F 13.1 °F 17.6 °F 80% 29.81 in 10.0 mi West 9.2 mph - N/A Snow Light Snow
8:00 PM 23.0 °F 12.4 °F 17.6 °F 80% 29.82 in 12.0 mi WNW 10.4 mph - N/A Snow Light Snow
9:00 PM 21.2 °F 9.5 °F 17.6 °F 86% 29.82 in 12.0 mi NW 11.5 mph 18.4 mph N/A Snow Light Snow
10:00 PM 21.2 °F 10.1 °F 17.6 °F 86% 29.82 in 15.0 mi WNW 10.4 mph - N/A Snow Light Snow
10:44 PM 19.4 °F 8.6 °F 14.0 °F 80% 29.82 in 15.0 mi WNW 9.2 mph - N/A   Mostly Cloudy
11:00 PM 19.4 °F 6.0 °F 14.0 °F 80% 29.82 in 15.0 mi WNW 13.8 mph - N/A   Mostly Cloudy